ARIANE 44LP DEB, 41118

Orbit data source: Space-Track

ARIANE 44LP DEB, 41118 is space debris in HEO originally from a launch on Sat, 02 Mar 1991 UTC launched from the French Guiana (FRGUI). Debris objects in space refer to the collection of defunct objects orbiting the Earth. Examples of debris include non-operational satellites, rocket bodies, and fragments generated from explosions, collisions, or faulty payload assembly.

Loading next visibility...
Identifier
41118, 1991-015Q
Orbit
HEO
Country
Flag of FRFR
Related business
Manufacturer
Unknown
Mission
Spacecraft
Bus & Motor
Unknown
Mass
Unknown
Launch date (UTC)
1991-03-02 (35 years ago)
Launch vehicle
Unknown
Launch site
French Guiana (FRGUI)
Object type
Payload
Rocket body
Debris
Shape & HBR
Unknown shape, 1.1 m
Radar Cross Section
Medium (>0.1 m² and <1 m²)

Expand to show TLE details & history
Last TLE update: 5 months ago

TLE from 5 months ago
0 ARIANE 44LP DEB
1 41118U 91015Q   26011.22430512  .00000087  00000-0  11338-2 0  9993
2 41118   3.5736 189.5911 6654507   6.7141 273.4789  2.84252692125869
Epoch: 2026-01-11T05:22Z
TLE epoch observation values (Epoch: 2026-01-11T05:22:59.962Z)
Latitude
-2.08922°
Longitude
-145.96766°
Altitude
21,585.068 km
Speed
3.094 km/s
True Right ascension
03h 02m 04s
True Declination
-2° 05' 10"
Sunlit
Object was in daylight at epoch
Visualization orbit readout
Latitude
Unknown
Longitude
Unknown
Altitude
Unknown
Speed
Unknown
Apparent Right ascension
Unknown
Apparent Declination
Unknown
Sunlit
N/A
Visualization observer readout
Local Sidereal Time
23:20:43
Azimuth
Unknown
Elevation
Unknown
Doppler factor
Unknown
Orbital elements
Apogee altitude
28,689.03 km
Perigee altitude
666.02 km
Semi-major axis
21,055.662 km
Eccentricity
0.66545
Inclination
3.5736°
RAAN
189.5911°
Arg. of periapsis
6.7141°
True anomaly
209.20932°
Mean anomaly
273.4789°
Eccentric anomaly
240.34523°
Mean motion
0.71038 °/min
Orbital period
506.77 mins
BSTAR
0.0011338
Loading maneuver chart data...
Computing Atmospheric mass density...

Documentation

Showing up to 5 results
|